Volver al catálogo

DELTA 1 DEB

ActivoPO
NORAD 42561·DEBRIS·🇺🇸 United States

Lanzado Jul 23, 1972 desde Vandenberg Space Force Base

Loading…

Próximos Pases (próximas 24 horas)

TLE

EnvejeciendoSource: Space-Track

Época: Sep 8, 2026, 20:00 UTC

1 42561U 72058JU  26251.83376561  .00001051  00000-0  18487-2 0  9992
2 42561  98.9071  21.8387 0470389 237.3281 283.7695 13.08884230609787

Sigue DELTA 1 DEB en tiempo real con AllMySat

Download on the App Store